Time,TemperatureF,DewpointF,PressureIn,WindDirection,WindDirectionDegrees,WindSpeedMPH,WindSpeedGustMPH,Humidity,HourlyPrecipIn,Conditions,Clouds,dailyrainin,SoftwareType,DateUTC
2013-12-05 00:22:00,29.0,20.0,30.03,WNW,294,3.0,-999.0,69,-99.99,,,-99.99,,2013-12-05 06:22:00,
2013-12-05 00:52:00,29.0,18.0,30.03,North,360,4.0,-999.0,64,-99.99,,,-99.99,,2013-12-05 06:52:00,
2013-12-05 01:22:00,29.0,17.0,30.05,NW,313,3.0,-999.0,60,-99.99,,,-99.99,,2013-12-05 07:22:00,
2013-12-05 01:52:00,29.0,15.0,30.06,NNW,328,4.0,-999.0,56,-99.99,,,-99.99,,2013-12-05 07:52:00,
2013-12-05 02:22:00,29.0,14.0,30.08,North,359,4.0,-999.0,54,-99.99,,,-99.99,,2013-12-05 08:22:00,
2013-12-05 02:53:00,28.0,13.0,30.09,NNW,339,3.0,-999.0,53,-99.99,,,-99.99,,2013-12-05 08:53:00,
2013-12-05 03:22:00,28.0,14.0,30.10,WNW,298,3.0,-999.0,54,-99.99,,,-99.99,,2013-12-05 09:22:00,
2013-12-05 03:54:00,28.0,14.0,30.12,NW,313,3.0,-999.0,54,-99.99,,,-99.99,,2013-12-05 09:54:00,
2013-12-05 04:23:00,28.0,14.0,30.12,North,354,3.0,-999.0,54,-99.99,,,-99.99,,2013-12-05 10:23:00,
2013-12-05 04:53:00,27.0,12.0,30.14,West,281,3.0,-999.0,52,-99.99,,,-99.99,,2013-12-05 10:53:00,
2013-12-05 05:22:00,26.0,11.0,30.14,NW,311,3.0,-999.0,53,-99.99,,,-99.99,,2013-12-05 11:22:00,
2013-12-05 05:53:00,26.0,12.0,30.16,West,280,3.0,-999.0,54,-99.99,,,-99.99,,2013-12-05 11:53:00,
2013-12-05 06:21:00,25.0,12.0,30.18,NW,322,3.0,-999.0,56,-99.99,,,-99.99,,2013-12-05 12:21:00,
2013-12-05 06:52:00,25.0,13.0,30.17,NNW,336,2.0,-999.0,59,-99.99,,,-99.99,,2013-12-05 12:52:00,
2013-12-05 07:22:00,24.0,12.0,30.18,WNW,299,3.0,-999.0,60,-99.99,,,-99.99,,2013-12-05 13:22:00,
2013-12-05 07:52:00,24.0,12.0,30.22,West,272,2.0,-999.0,60,-99.99,,,-99.99,,2013-12-05 13:52:00,
2013-12-05 08:22:00,24.0,11.0,30.23,North,360,3.0,-999.0,58,-99.99,,,-99.99,,2013-12-05 14:22:00,
2013-12-05 08:52:00,24.0,12.0,30.21,NNE,14,2.0,-999.0,60,-99.99,,,-99.99,,2013-12-05 14:52:00,
2013-12-05 09:22:00,23.0,11.0,30.22,NW,323,3.0,-999.0,60,-99.99,,,-99.99,,2013-12-05 15:22:00,
2013-12-05 09:54:00,23.0,11.0,30.20,North,6,3.0,-999.0,60,-99.99,,,-99.99,,2013-12-05 15:54:00,
2013-12-05 10:23:00,24.0,11.0,30.25,North,354,2.0,-999.0,58,-99.99,,,-99.99,,2013-12-05 16:23:00,
2013-12-05 10:53:00,24.0,11.0,30.25,North,1,3.0,-999.0,56,-99.99,,,-99.99,,2013-12-05 16:53:00,
2013-12-05 11:23:00,24.0,10.0,30.25,NNE,18,3.0,-999.0,55,-99.99,,,-99.99,,2013-12-05 17:23:00,
2013-12-05 11:52:00,23.0,12.0,30.26,North,4,3.0,-999.0,61,-99.99,,,-99.99,,2013-12-05 17:52:00,
2013-12-05 12:22:00,24.0,13.0,30.25,NNE,30,2.0,-999.0,61,-99.99,,,-99.99,,2013-12-05 18:22:00,
2013-12-05 12:52:00,24.0,11.0,30.21,NNE,18,3.0,-999.0,58,-99.99,,,-99.99,,2013-12-05 18:52:00,
2013-12-05 13:21:00,24.0,11.0,30.19,NNW,339,3.0,-999.0,58,-99.99,,,-99.99,,2013-12-05 19:21:00,
2013-12-05 13:52:00,23.0,14.0,30.21,NW,320,3.0,-999.0,67,-99.99,,,-99.99,,2013-12-05 19:52:00,
2013-12-05 14:22:00,23.0,16.0,30.20,NNW,333,2.0,-999.0,74,-99.99,,,-99.99,,2013-12-05 20:22:00,
2013-12-05 14:52:00,23.0,14.0,30.20,North,360,3.0,-999.0,69,-99.99,,,-99.99,,2013-12-05 20:52:00,
2013-12-05 15:22:00,23.0,16.0,30.20,North,349,2.0,-999.0,73,-99.99,,,-99.99,,2013-12-05 21:22:00,
2013-12-05 15:53:00,23.0,16.0,30.20,North,359,2.0,-999.0,73,-99.99,,,-99.99,,2013-12-05 21:53:00,
2013-12-05 16:23:00,23.0,15.0,30.22,North,360,2.0,-999.0,72,-99.99,,,-99.99,,2013-12-05 22:23:00,
2013-12-05 16:52:00,23.0,16.0,30.22,North,3,2.0,-999.0,73,-99.99,,,-99.99,,2013-12-05 22:52:00,
2013-12-05 17:22:00,22.0,16.0,30.21,NNW,339,2.0,-999.0,79,-99.99,,,-99.99,,2013-12-05 23:22:00,
2013-12-05 17:53:00,22.0,16.0,30.23,WNW,298,2.0,-999.0,78,-99.99,,,-99.99,,2013-12-05 23:53:00,
2013-12-05 18:22:00,22.0,17.0,30.23,NNW,347,2.0,-999.0,80,-99.99,,,-99.99,,2013-12-06 00:22:00,
2013-12-05 18:52:00,21.0,16.0,30.23,NW,326,3.0,-999.0,81,-99.99,,,-99.99,,2013-12-06 00:52:00,
2013-12-05 19:21:00,21.0,17.0,30.22,North,10,2.0,-999.0,83,-99.99,,,-99.99,,2013-12-06 01:21:00,
2013-12-05 19:52:00,21.0,16.0,30.23,NW,312,2.0,-999.0,82,-99.99,,,-99.99,,2013-12-06 01:52:00,
2013-12-05 20:22:00,21.0,16.0,30.24,North,352,2.0,-999.0,80,-99.99,,,-99.99,,2013-12-06 02:22:00,
2013-12-05 20:52:00,20.0,15.0,30.24,NW,312,2.0,-999.0,80,-99.99,,,-99.99,,2013-12-06 02:52:00,
2013-12-05 21:21:00,20.0,15.0,30.25,North,349,2.0,-999.0,79,-99.99,,,-99.99,,2013-12-06 03:21:00,
2013-12-05 21:53:00,21.0,15.0,30.27,NW,315,2.0,-999.0,77,-99.99,,,-99.99,,2013-12-06 03:53:00,
2013-12-05 22:23:00,20.0,13.0,30.26,NNW,340,3.0,-999.0,74,-99.99,,,-99.99,,2013-12-06 04:23:00,
2013-12-05 22:53:00,20.0,14.0,30.27,NNE,14,3.0,-999.0,77,-99.99,,,-99.99,,2013-12-06 04:53:00,
2013-12-05 23:22:00,20.0,15.0,30.28,North,354,2.0,-999.0,80,-99.99,,,-99.99,,2013-12-06 05:22:00,
2013-12-05 23:53:00,20.0,16.0,30.27,NNW,344,1.0,-999.0,84,-99.99,,,-99.99,,2013-12-06 05:53:00,